Location: Kerb�bon
(47.7970°N, 3.3487°W)
Time: 13:37:10
(UTC+00:00)

ATLAS 2AS CENTAUR R/B - Pass Details

Date: 12 May 2021
Orbit: 949 x 1263 km, 63.7° (Epoch: 07 May)

Event Time Altitude Azimuth Distance (km) Brightness Sun altitude
Rises 20:36:17 0° 315° (NW) 4,155 8.1 -8.5°
Reaches altitude 10° 20:39:23 10° 324° (NW) 3,151 6.7 -8.9°
Maximum altitude 20:46:22 39° 31° (NNE) 1,662 3.8 -9.7°
Drops below altitude 10° 20:52:52 10° 99° (E) 2,932 4.5 -10.5°
Enters shadow 20:53:31 - 101° (ESE) 3,137 4.6 -10.6°
